Home   Weather   Montpellier   Past weeks

Flag for France Past Weather in Montpellier, Languedoc-Roussillon, France — Yesterday and Last 2 Weeks

Now
27 °F

Clear.


Feels Like: 19 °F
Forecast: 27 / 50 °F
Wind: 7 mph from Northwest

Location: Montpellier Airport

Current Time: Jan 19, 2017 at 5:50:16 am

Latest Report: Jan 19, 2017 at 5:00 am


Visibility: 10 mi

Pressure: 30.27 "Hg

Humidity: 64%

Dew Point: 16 °F

Location of MontpellierLocation

Past Weather in Montpellier — Graph

°F

Montpellier Temperature Yesterday

Maximum temperature yesterday: 45 °F (at 3:00 pm)
Minimum temperature yesterday: 25 °F (at 5:00 am)
Average temperature yesterday: 33 °F

High & Low Weather Summary for the Past Weeks

 TemperatureHumidityPressure
High61 °F (Jan 12, 1:30 pm)94% (Jan 12, 9:00 pm)30.45 "Hg (Jan 12, 9:00 pm)
Low25 °F (Jan 7, 4:00 am)23% (Jan 14, 4:00 pm)29.77 "Hg (Jan 10, 2:00 pm)
Average40 °F55%30.15 "Hg
* Reported Jan 4 4:00 am — Jan 19 4:30 am, Montpellier, Weather by CustomWeather, © 2017

Note: Actual official high and low records may vary slightly from our data, if they occured in-between our weather recording intervals... More about our weather records

Advertising

Montpellier Weather History for the Previous 24 Hours

Scroll right to see more
 ConditionsComfort  
Time TempWeatherWind HumidityBarometerVisibility
4:30 am
Thu, Jan 19
27 °FClear.7 mph64%30.27 "Hg10 mi
4:00 am25 °FClear.3 mph69%30.27 "Hg10 mi
3:30 am25 °FClear.5 mph69%30.27 "Hg10 mi
3:00 am25 °FPassing clouds.6 mph69%30.27 "HgN/A
2:30 am27 °FClear.6 mph64%30.27 "Hg10 mi
2:00 am27 °FClear.3 mph64%30.24 "Hg10 mi
1:30 am27 °FPassing clouds.3 mph64%30.27 "HgN/A
1:00 am27 °FClear.2 mph64%30.24 "Hg10 mi
12:30 am28 °FClear.5 mph59%30.24 "Hg10 mi
12:00 am28 °FPassing clouds.6 mph59%30.24 "HgN/A
11:30 pm
Wed, Jan 18
30 °FClear.8 mph55%30.24 "Hg10 mi
11:00 pm30 °FClear.7 mph55%30.24 "Hg10 mi
10:30 pm32 °FClear.8 mph51%30.24 "Hg10 mi
10:00 pm32 °FClear.10 mph51%30.24 "Hg10 mi
9:30 pm34 °FClear.12 mph48%30.24 "Hg10 mi
9:00 pm34 °FClear.14 mph51%30.21 "Hg10 mi
8:30 pm34 °FClear.14 mph51%30.21 "Hg10 mi
8:00 pm36 °FClear.15 mph48%30.21 "Hg10 mi
7:30 pm36 °FClear.9 mph48%30.21 "Hg10 mi
7:00 pm36 °FClear.8 mph48%30.21 "Hg10 mi
6:30 pm37 °FClear.12 mph45%30.18 "Hg10 mi
6:00 pm37 °FClear.9 mph45%30.18 "Hg10 mi
5:30 pm39 °FSunny.10 mph42%30.18 "Hg10 mi
5:00 pm43 °FSunny.9 mph36%30.18 "Hg10 mi
4:30 pm43 °FSunny.9 mph36%30.18 "Hg10 mi
4:00 pm45 °FSunny.9 mph31%30.18 "Hg10 mi
3:30 pm45 °FSunny.9 mph29%30.18 "Hg10 mi
3:00 pm45 °FSunny.8 mph29%30.18 "Hg10 mi
2:30 pm43 °FSunny.9 mph34%30.18 "Hg10 mi
2:00 pm43 °FPassing clouds.12 mph34%30.18 "HgN/A
1:00 pm39 °FPassing clouds.10 mph39%30.21 "HgN/A
12:30 pm39 °FPassing clouds.9 mph39%30.21 "HgN/A
12:00 pm37 °FPassing clouds.13 mph38%30.21 "HgN/A
11:30 am36 °FSunny.2 mph44%30.21 "Hg10 mi
11:00 am32 °FSunny.3 mph51%30.21 "Hg10 mi
10:30 am32 °FSunny.6 mph51%30.21 "Hg10 mi
10:00 am30 °FSunny.6 mph55%30.21 "Hg10 mi
9:30 am27 °FSunny.3 mph64%30.18 "Hg10 mi
9:00 am27 °FSunny.5 mph59%30.18 "Hg10 mi
8:30 am25 °FSunny.6 mph63%30.18 "Hg10 mi
8:09 am25 °FClear.8 mph63%30.18 "Hg10 mi
7:30 am25 °FClear.7 mph63%30.18 "Hg10 mi
7:00 am25 °FClear.5 mph63%30.18 "Hg10 mi
6:30 am25 °FClear.5 mph63%30.18 "Hg10 mi
6:00 am27 °FPassing clouds.5 mph59%30.15 "HgN/A
5:30 am27 °FClear.7 mph59%30.18 "Hg10 mi
5:00 am25 °FPassing clouds.7 mph59%30.18 "HgN/A
Weather by CustomWeather, © 2017

See weather overviewHow to use our weather pages